Regional Weather Roundup
Issued by NWS

Home | Current Version | Previous Version | Text Only | Print | Product List | Glossary Off
Versions: 1 2 3 4 5 6 7 8 9 10 11 12 13 14 15 16 17 18 19 20 21 22 23 24 25 26 27 28 29 30 31 32 33 34 35 36 37 38 39 40 41 42 43 44 45 46 47 48 49 50

800
ASUS43 KDTX 301510
RWRMI
MICHIGAN HOURLY REGIONAL WEATHER ROUNDUP
NATIONAL WEATHER SERVICE DETROIT/PONTIAC MI
1100 AM EDT THU MAR 30 2017

NOTE: "FAIR" INDICATES FEW OR NO CLOUDS BELOW 12,000 FEET WITH NO
SIGNIFICANT WEATHER AND/OR OBSTRUCTION TO VISIBILITY.

MIZ047>049-052>055-059>063-066>070-074>076-081>083-301600-
SOUTHEAST LOWER MICHIGAN

CITY           SKY/WX    TMP DP  RH WIND       PRES   REMARKS
ADRIAN         LGT RAIN  38  36  92 E17G25    29.93F WCI  28
ALMA           LGT SNOW  35  35  99 E15       29.99F WCI  25
ANN ARBOR      RAIN      37  36  96 NE16G22   29.97S FOG     WCI  28
BAD AXE        CLOUDY    37  29  73 SE10G18   30.09S WCI  30
CARO           LGT SNOW  33  33  96 E8        30.06F WCI  27
DETROIT CITY   RAIN      36  35  96 E16G24    30.03R FOG     WCI  26
DETROIT        HVY RAIN  38  36  92 E15       30.00F FOG     WCI  29
FLINT          LGT RAIN  36  33  89 E14       30.03F FOG     WCI  27
GROSSE ILE     LGT SNOW  37  35  92 E14G20    29.99F WCI  28
HILLSDALE      RAIN      36  36 100 E20G28    29.88F WCI  25
HOWELL         LGT RAIN  36  34  91 E13       30.00F WCI  28

CITY           SKY/WX    TMP DP  RH WIND       PRES   REMARKS
JACKSON        LGT RAIN  38 N/A N/A E15G26    29.94F WCI  29
LAMBERTVILLE   RAIN      40  37  90 E12G21    29.95S WCI  32
LANSING        LGT RAIN  38  34  85 E16G23    29.95F WCI  29
LAPEER         RAIN      34  33  97 E7        30.05S WCI  28
MASON          LGT SNOW  37  36  95 E17G23    29.94F WCI  28
MONROE         RAIN      38  37  97 E14G20    29.97F WCI  30
MT. CLEMENS    RAIN      36  36  99 E18       30.02R FOG     WCI  26
PONTIAC        RAIN      34  32  92 E13       30.01S FOG     WCI  25
PORT HOPE        N/A     36  31  82 E18       30.09F WCI  26
PORT HURON     LGT RAIN  34  32  93 E10G17    30.07R WCI  26
TRI CITIES     LGT RAIN  33  33 100 E12       30.05F FOG     WCI  24
MIDLAND        LGT SNOW  33  32  96 E8        30.05F VSB 1   WCI  26
TROY           LGT RAIN  36  34  91 NE10      30.05S WCI  29
SAGINAW HB     LGT SNOW  34  32  93 E8        30.05F WCI  27
$$
MIZ043>046-050>051-056>058-064>065-071>073-077>080-301600-
SOUTHWEST LOWER MICHIGAN

CITY           SKY/WX    TMP DP  RH WIND       PRES   REMARKS
BATTLE CREEK   LGT RAIN  40  38  93 E17G25    29.85F WCI  31
BENTON HARBOR  CLOUDY    44  39  82 E18G31    29.79F
BIG RAPIDS     LGT SNOW  34  32  93 E10       29.96F WCI  26
COLDWATER      LGT RAIN  40  38  96 E17G25    29.84F WCI  31
FREMONT        RAIN      37  35  94 E13G23    29.91F WCI  29
HOLLAND        CLOUDY    40  32  73 E18G30    29.86F WCI  31
GRAND RAPIDS   CLOUDY    38  38 100 E22G31    29.90F WCI  27
IONIA          LGT RAIN  36  35  96 E20       29.92F WCI  25
KALAMAZOO      LGT RAIN  41  37  86 E14G26    29.83F
LUDINGTON      LGT RAIN  37  37  97 E16G22    29.94F WCI  28
MARSHALL       LGT RAIN  38  38  98 E14G23    29.88F WCI  30
MOUNT PLEASANT LGT SNOW  33  32  96 E12       30.01F WCI  24
MUSKEGON       LGT RAIN  40  37  89 E20G29    29.89F FOG     WCI  30
SOUTH HAVEN    DRIZZLE   43  40  89 E22G31    29.78F
$$
MIZ016>042-301600-
NORTHERN LOWER MICHIGAN

CITY           SKY/WX    TMP DP  RH WIND       PRES   REMARKS
ALPENA         CLOUDY    37  29  72 E16G23    30.14F WCI  28
BEAVER ISLAND  LGT SNOW  34  31  88 E10G17    30.10F WCI  26
BELLAIRE       CLOUDY    40  27  60 E9        30.07R WCI  34
CADILLAC       CLOUDY    36  32  87 E15G21    29.97F WCI  26
CHARLEVOIX     CLOUDY    37  29  73 E10       30.10S WCI  30
FRANKFORT      LGT RAIN  38  32  80 E5        30.00F WCI  34
GAYLORD        MOSUNNY   38  26  62 MISG      30.06S
GRAYLING       CLOUDY    37  28  70 E14       30.06S WCI  29
HARBOR SPRINGS CLOUDY    37  29  73 E10       30.09F WCI  29
HOUGHTON LAKE  CLOUDY    37  28  70 E14       30.04F WCI  28
MANISTEE       LGT RAIN  38  35  89 E13       29.97F WCI  30
OSCODA         CLOUDY    38  30  74 E7G18     30.12F WCI  32
PELLSTON       CLOUDY    37  26  64 E12       30.11F WCI  29
ROGERS CITY    CLOUDY    37  28  72 E16       30.15S WCI  27
TRAVERSE CITY  CLOUDY    42  29  59 E8G18     30.02F
$$
MIZ007>008-015-301600-
EASTERN UPPER MICHIGAN

CITY           SKY/WX    TMP DP  RH WIND       PRES   REMARKS
KINROSS        CLOUDY    34  24  67 E22       30.15S WCI  22
MACKINAC ISLAN CLOUDY    34  30  86 E13G23    30.12F WCI  25
NEWBERRY       CLOUDY    35  26  69 E14       30.11F WCI  25
S. S. MARIE    CLOUDY    38  22  52 E10G22    30.15F WCI  31
MUNISING         N/A     38  26  62 SE8       30.09F WCI  32
$$
MIZ004>006-011>014-085-301600-
CENTRAL UPPER MICHIGAN

CITY           SKY/WX    TMP DP  RH WIND       PRES   REMARKS
MANISTIQUE     CLOUDY    35  31  86 E10G18    30.10S WCI  27
ESCANABA       LGT RAIN  35  30  82 E12       30.08F WCI  27
MENOMINEE      LGT SNOW  33  31  92 NE14      30.05F FOG     WCI  23
SAWYER-GWINN   CLOUDY    34  25  69 E6        30.06F WCI  29
$$
MIZ001>003-009>011-084-301600-
WESTERN UPPER MICHIGAN

CITY           SKY/WX    TMP DP  RH WIND       PRES   REMARKS
IRON MOUNTAIN  FLURRIES  34  26  72 E7        30.03F WCI  28
HOUGHTON       CLOUDY    36  32  87 E16       30.06F WCI  26
COPPER HARBOR    N/A     38  25  59 VRB7      30.10F WCI  33
IRONWOOD       CLOUDY    37  27  67 E6        30.00F WCI  32
$$

ABBREVIATIONS USED IN REMARKS
   TC - TEMPERATURE IN CELSIUS
  WCI - WIND CHILL INDEX
   HX - HEAT INDEX
  VSB - VISIBILITY





USA.gov is the U.S. government's official web portal to all federal, state and local government web resources and services.